ACA703 KLGA-CYYZ

Flight info

Callsign ACA703
Flight time 0h 58m
Altitude 36000
Route GAYEL Q818 WOZEE LINNG3
Aircraft A320/M-SDE3FGHIRWY/LB1

Departure

Time 2026-05-05 14:51
Airport LaGuardia Airport (KLGA)

Arrival

Time 2026-05-05 15:49
Airport Toronto Pearson International Airport (CYYZ)
Time Latitude Longitude Altitude Speed Heading
2026-05-05 14:36 40.77312 -73.86930 21 ft 0 kts 43°
2026-05-05 14:43 40.77300 -73.86945 20 ft 2 kts 43°
2026-05-05 14:43 40.77287 -73.86960 22 ft 2 kts 10°
2026-05-05 14:44 40.77274 -73.86959 23 ft 0 kts 317°
2026-05-05 14:46 40.77292 -73.86985 20 ft 15 kts 313°
2026-05-05 14:47 40.77381 -73.87138 21 ft 23 kts 312°
2026-05-05 14:47 40.77443 -73.87326 20 ft 23 kts 280°
2026-05-05 14:47 40.77500 -73.87526 20 ft 24 kts 315°
2026-05-05 14:47 40.77629 -73.87669 22 ft 24 kts 303°
2026-05-05 14:48 40.77711 -73.87863 22 ft 26 kts 298°
2026-05-05 14:48 40.77802 -73.88017 22 ft 17 kts 351°
2026-05-05 14:48 40.77905 -73.87946 19 ft 17 kts 33°
2026-05-05 14:48 40.78003 -73.87862 16 ft 17 kts 33°
2026-05-05 14:49 40.78102 -73.87844 18 ft 13 kts 346°
2026-05-05 14:49 40.78186 -73.87861 19 ft 11 kts 14°
2026-05-05 14:49 40.78200 -73.87788 18 ft 0 kts 122°
2026-05-05 14:49 40.78198 -73.87785 18 ft 1 kts 122°
2026-05-05 14:50 40.78192 -73.87772 18 ft 4 kts 122°
2026-05-05 14:50 40.78062 -73.87506 14 ft 74 kts 123°
2026-05-05 14:50 40.77668 -73.86679 14 ft 136 kts 122°
2026-05-05 14:50 40.77109 -73.85511 395 ft 150 kts 125°
2026-05-05 14:51 40.76570 -73.84334 1038 ft 152 kts 126°
2026-05-05 14:51 40.75986 -73.83071 1413 ft 172 kts 128°
2026-05-05 14:51 40.75482 -73.81536 1734 ft 200 kts 96°
2026-05-05 14:51 40.75893 -73.79714 2042 ft 222 kts 48°
2026-05-05 14:52 40.77040 -73.78228 2356 ft 244 kts 34°
2026-05-05 14:52 40.78433 -73.76865 3014 ft 251 kts 31°
2026-05-05 14:52 40.79890 -73.75560 3814 ft 254 kts 25°
2026-05-05 14:52 40.81522 -73.74578 4320 ft 273 kts 19°
2026-05-05 14:53 40.83320 -73.73539 4930 ft 289 kts 21°
2026-05-05 14:53 40.85247 -73.72602 5731 ft 293 kts
2026-05-05 14:53 40.87261 -73.72655 6509 ft 290 kts 340°
2026-05-05 14:53 40.89039 -73.73721 7309 ft 281 kts 316°
2026-05-05 14:54 40.90526 -73.75423 8211 ft 279 kts 310°
2026-05-05 14:54 40.91954 -73.77133 9091 ft 282 kts 310°
2026-05-05 14:54 40.93412 -73.78880 9962 ft 285 kts 310°
2026-05-05 14:54 40.94910 -73.80679 10452 ft 301 kts 310°
2026-05-05 14:55 40.96520 -73.82624 10685 ft 325 kts 311°
2026-05-05 14:55 40.98253 -73.84713 10845 ft 349 kts 311°
2026-05-05 14:55 41.00113 -73.86945 10978 ft 371 kts 312°
2026-05-05 14:55 41.02068 -73.89279 11378 ft 383 kts 312°
2026-05-05 14:56 41.04061 -73.91645 12038 ft 386 kts 313°
2026-05-05 14:56 41.06065 -73.94018 12748 ft 388 kts 313°
2026-05-05 14:56 41.08081 -73.96408 13472 ft 389 kts 313°
2026-05-05 14:56 41.10100 -73.98810 14113 ft 391 kts 313°
2026-05-05 14:57 41.12130 -74.01239 14717 ft 394 kts 313°
2026-05-05 14:57 41.14165 -74.03682 15294 ft 396 kts 313°
2026-05-05 14:57 41.16212 -74.06148 15824 ft 400 kts 313°
2026-05-05 14:57 41.18276 -74.08637 16340 ft 402 kts 313°
2026-05-05 14:58 41.20361 -74.11150 16837 ft 405 kts 313°
2026-05-05 14:58 41.22463 -74.13683 17338 ft 408 kts 313°
2026-05-05 14:58 41.24573 -74.16226 17804 ft 411 kts 313°
2026-05-05 14:58 41.26700 -74.18786 18222 ft 414 kts 313°
2026-05-05 14:59 41.28848 -74.21377 18626 ft 417 kts 313°
2026-05-05 14:59 41.30993 -74.23978 19009 ft 419 kts 313°
2026-05-05 14:59 41.33157 -74.26604 19389 ft 423 kts 313°
2026-05-05 14:59 41.35342 -74.29258 19728 ft 427 kts 314°
2026-05-05 15:00 41.37542 -74.31925 20076 ft 429 kts 314°
2026-05-05 15:00 41.39001 -74.33711 20309 ft 430 kts 312°
2026-05-05 15:00 41.41543 -74.37785 20777 ft 427 kts 300°
2026-05-05 15:00 41.43057 -74.41191 21094 ft 428 kts 297°
2026-05-05 15:01 41.44545 -74.44638 21423 ft 430 kts 297°
2026-05-05 15:01 41.46024 -74.48061 21730 ft 433 kts 297°
2026-05-05 15:01 41.47549 -74.51593 22051 ft 435 kts 297°
2026-05-05 15:01 41.49014 -74.54991 22337 ft 437 kts 297°
2026-05-05 15:02 41.50533 -74.58510 22639 ft 439 kts 297°
2026-05-05 15:02 41.52049 -74.62018 23431 ft 429 kts 297°
2026-05-05 15:02 41.53522 -74.65422 24188 ft 421 kts 297°
2026-05-05 15:02 41.54983 -74.68805 24630 ft 421 kts 297°
2026-05-05 15:03 41.56446 -74.72201 24979 ft 423 kts 297°
2026-05-05 15:03 41.57907 -74.75615 25303 ft 425 kts 297°
2026-05-05 15:03 41.59376 -74.79056 25611 ft 427 kts 297°
2026-05-05 15:03 41.60852 -74.82516 25917 ft 430 kts 297°
2026-05-05 15:04 41.62342 -74.85999 26201 ft 433 kts 297°
2026-05-05 15:04 41.63839 -74.89498 26491 ft 435 kts 297°
2026-05-05 15:04 41.65344 -74.93014 26774 ft 437 kts 297°
2026-05-05 15:04 41.66863 -74.96567 27053 ft 439 kts 297°
2026-05-05 15:05 41.69899 -75.03700 27575 ft 443 kts 297°
2026-05-05 15:05 41.71427 -75.07302 27844 ft 444 kts 297°
2026-05-05 15:05 41.72947 -75.10891 28165 ft 443 kts 297°
2026-05-05 15:06 41.74466 -75.14483 28470 ft 443 kts 297°
2026-05-05 15:06 41.75978 -75.18069 28831 ft 441 kts 297°
2026-05-05 15:06 41.77465 -75.21602 29154 ft 440 kts 297°
2026-05-05 15:06 41.78967 -75.25169 29499 ft 439 kts 297°
2026-05-05 15:07 41.80472 -75.28731 29851 ft 439 kts 297°
2026-05-05 15:07 41.81972 -75.32280 30156 ft 438 kts 297°
2026-05-05 15:07 41.83472 -75.35829 30435 ft 437 kts 297°
2026-05-05 15:07 41.84966 -75.39372 30726 ft 436 kts 297°
2026-05-05 15:08 41.86455 -75.42916 31016 ft 436 kts 297°
2026-05-05 15:08 41.87934 -75.46447 31379 ft 432 kts 297°
2026-05-05 15:08 41.89401 -75.49956 31715 ft 430 kts 297°
2026-05-05 15:08 41.90862 -75.53459 32037 ft 429 kts 297°
2026-05-05 15:09 41.92318 -75.56954 32343 ft 428 kts 297°
2026-05-05 15:09 41.93772 -75.60448 32655 ft 427 kts 297°
2026-05-05 15:09 41.95226 -75.63934 32963 ft 426 kts 297°
2026-05-05 15:09 41.96656 -75.67364 33253 ft 425 kts 297°
2026-05-05 15:10 41.98101 -75.70832 33564 ft 425 kts 297°
2026-05-05 15:10 41.99539 -75.74296 33876 ft 423 kts 297°
2026-05-05 15:10 42.00973 -75.77756 34143 ft 423 kts 297°
2026-05-05 15:10 42.02399 -75.81200 34485 ft 419 kts 296°
2026-05-05 15:11 42.03812 -75.84613 34804 ft 416 kts 296°
2026-05-05 15:11 42.05216 -75.88009 35068 ft 415 kts 296°
2026-05-05 15:11 42.06617 -75.91399 35298 ft 414 kts 296°
2026-05-05 15:11 42.08016 -75.94789 35510 ft 414 kts 296°
2026-05-05 15:12 42.09410 -75.98176 35717 ft 414 kts 296°
2026-05-05 15:12 42.12203 -76.04980 35827 ft 416 kts 296°
2026-05-05 15:13 42.14989 -76.11771 35822 ft 417 kts 296°
2026-05-05 15:13 42.17423 -76.18819 35819 ft 412 kts 290°
2026-05-05 15:14 42.19693 -76.25901 35821 ft 411 kts 290°
2026-05-05 15:14 42.21966 -76.32985 35816 ft 412 kts 290°
2026-05-05 15:15 42.24234 -76.40074 35799 ft 411 kts 290°
2026-05-05 15:15 42.26479 -76.47130 35798 ft 411 kts 289°
2026-05-05 15:16 42.28733 -76.54242 35810 ft 411 kts 289°
2026-05-05 15:16 42.30986 -76.61344 35810 ft 411 kts 289°
2026-05-05 15:17 42.33235 -76.68430 35797 ft 410 kts 289°
2026-05-05 15:17 42.35464 -76.75490 35788 ft 410 kts 289°
2026-05-05 15:18 42.37693 -76.82584 35784 ft 410 kts 289°
2026-05-05 15:18 42.39919 -76.89686 35788 ft 409 kts 289°
2026-05-05 15:19 42.42135 -76.96766 35788 ft 408 kts 289°
2026-05-05 15:19 42.44343 -77.03840 35788 ft 407 kts 289°
2026-05-05 15:20 42.46537 -77.10910 35785 ft 407 kts 289°
2026-05-05 15:20 42.48722 -77.17934 35776 ft 407 kts 289°
2026-05-05 15:21 42.50910 -77.25013 35791 ft 407 kts 289°
2026-05-05 15:21 42.53095 -77.32093 35800 ft 407 kts 288°
2026-05-05 15:22 42.54907 -77.37975 35803 ft 406 kts 288°
2026-05-05 15:22 42.57072 -77.45047 35800 ft 406 kts 288°
2026-05-05 15:23 42.59232 -77.52116 35796 ft 405 kts 288°
2026-05-05 15:23 42.61395 -77.59179 35796 ft 405 kts 288°
2026-05-05 15:24 42.63544 -77.66224 35804 ft 403 kts 288°
2026-05-05 15:24 42.65670 -77.73255 35798 ft 402 kts 288°
2026-05-05 15:25 42.67729 -77.80303 35791 ft 400 kts 287°
2026-05-05 15:25 42.69689 -77.87378 35774 ft 399 kts 286°
2026-05-05 15:26 42.71635 -77.94455 35759 ft 399 kts 286°
2026-05-05 15:26 42.73573 -78.01466 35758 ft 399 kts 287°
2026-05-05 15:27 42.75543 -78.08564 35752 ft 398 kts 287°
2026-05-05 15:27 42.76505 -78.12045 35533 ft 398 kts 287°
2026-05-05 15:27 42.77481 -78.15580 35276 ft 399 kts 287°
2026-05-05 15:27 42.78457 -78.19122 35032 ft 399 kts 287°
2026-05-05 15:28 42.79434 -78.22670 34773 ft 400 kts 287°
2026-05-05 15:28 42.80416 -78.26225 34534 ft 401 kts 287°
2026-05-05 15:28 42.81399 -78.29786 34284 ft 402 kts 287°
2026-05-05 15:28 42.82380 -78.33356 34038 ft 403 kts 287°
2026-05-05 15:29 42.83360 -78.36941 33468 ft 404 kts 286°
2026-05-05 15:29 42.84339 -78.40534 32625 ft 404 kts 286°
2026-05-05 15:29 42.85314 -78.44123 31742 ft 404 kts 286°
2026-05-05 15:29 42.86294 -78.47725 30834 ft 406 kts 287°
2026-05-05 15:30 42.87263 -78.51289 29982 ft 407 kts 287°
2026-05-05 15:30 42.88263 -78.54970 28907 ft 409 kts 287°
2026-05-05 15:30 42.89237 -78.58567 27887 ft 410 kts 287°
2026-05-05 15:30 42.90226 -78.62217 26882 ft 410 kts 287°
2026-05-05 15:31 42.91217 -78.65878 25781 ft 413 kts 287°
2026-05-05 15:31 42.92212 -78.69565 24775 ft 414 kts 287°
2026-05-05 15:31 42.93373 -78.73140 24018 ft 412 kts 294°
2026-05-05 15:31 42.94927 -78.76442 23139 ft 415 kts 303°
2026-05-05 15:32 42.96761 -78.79476 22261 ft 413 kts 305°
2026-05-05 15:32 42.98593 -78.82478 21487 ft 409 kts 304°
2026-05-05 15:32 43.00401 -78.85456 20729 ft 405 kts 304°
2026-05-05 15:32 43.02187 -78.88422 20000 ft 402 kts 304°
2026-05-05 15:33 43.03955 -78.91370 19278 ft 400 kts 304°
2026-05-05 15:33 43.05716 -78.94308 18585 ft 398 kts 304°
2026-05-05 15:33 43.07465 -78.97228 17888 ft 397 kts 304°
2026-05-05 15:33 43.09212 -79.00144 17187 ft 395 kts 304°
2026-05-05 15:34 43.10944 -79.03030 16576 ft 390 kts 303°
2026-05-05 15:34 43.12637 -79.05855 15974 ft 388 kts 303°
2026-05-05 15:34 43.14337 -79.08700 15389 ft 384 kts 303°
2026-05-05 15:34 43.16017 -79.11512 14825 ft 379 kts 303°
2026-05-05 15:35 43.17682 -79.14296 14302 ft 375 kts 303°
2026-05-05 15:35 43.19320 -79.17038 13737 ft 371 kts 303°
2026-05-05 15:35 43.20946 -79.19760 13145 ft 367 kts 303°
2026-05-05 15:35 43.22536 -79.22421 12910 ft 353 kts 303°
2026-05-05 15:36 43.24058 -79.24963 12772 ft 337 kts 303°
2026-05-05 15:36 43.25513 -79.27400 12645 ft 323 kts 302°
2026-05-05 15:36 43.26906 -79.29743 12511 ft 311 kts 302°
2026-05-05 15:36 43.28244 -79.32001 12378 ft 299 kts 302°
2026-05-05 15:37 43.29562 -79.34140 12239 ft 291 kts 307°
2026-05-05 15:37 43.31131 -79.35906 11983 ft 294 kts 319°
2026-05-05 15:37 43.32931 -79.37183 11731 ft 295 kts 327°
2026-05-05 15:37 43.34788 -79.38367 11497 ft 294 kts 326°
2026-05-05 15:38 43.36643 -79.39553 11245 ft 293 kts 326°
2026-05-05 15:38 43.38487 -79.40735 10999 ft 292 kts 326°
2026-05-05 15:38 43.40330 -79.41919 10727 ft 292 kts 326°
2026-05-05 15:38 43.42189 -79.43118 10196 ft 297 kts 326°
2026-05-05 15:39 43.44053 -79.44320 9879 ft 294 kts 326°
2026-05-05 15:39 43.45905 -79.45512 9477 ft 293 kts 326°
2026-05-05 15:39 43.47749 -79.46700 9048 ft 292 kts 326°
2026-05-05 15:39 43.49617 -79.47914 8389 ft 299 kts 326°
2026-05-05 15:40 43.51474 -79.49112 8181 ft 290 kts 327°
2026-05-05 15:40 43.53272 -79.50262 8075 ft 282 kts 326°
2026-05-05 15:40 43.55048 -79.51404 7941 ft 282 kts 326°
2026-05-05 15:40 43.56820 -79.52544 7635 ft 279 kts 327°
2026-05-05 15:41 43.58675 -79.53316 7371 ft 291 kts 350°
2026-05-05 15:41 43.60687 -79.52697 7119 ft 308 kts 25°
2026-05-05 15:41 43.62388 -79.50897 6860 ft 308 kts 40°
2026-05-05 15:41 43.63871 -79.48822 6726 ft 299 kts 45°
2026-05-05 15:42 43.65232 -79.46708 6604 ft 288 kts 46°
2026-05-05 15:42 43.66524 -79.44656 6479 ft 278 kts 46°
2026-05-05 15:42 43.67782 -79.42690 6338 ft 269 kts 45°
2026-05-05 15:42 43.69036 -79.40778 6062 ft 267 kts 44°
2026-05-05 15:43 43.70293 -79.38900 5801 ft 265 kts 44°
2026-05-05 15:43 43.71554 -79.37042 5517 ft 264 kts 44°
2026-05-05 15:43 43.72837 -79.35235 5229 ft 261 kts 34°
2026-05-05 15:43 43.74417 -79.34232 4993 ft 244 kts
2026-05-05 15:44 43.76031 -79.34398 4720 ft 227 kts 332°
2026-05-05 15:44 43.77393 -79.35423 4321 ft 223 kts 313°
2026-05-05 15:44 43.78385 -79.36976 4181 ft 208 kts 295°
2026-05-05 15:44 43.78938 -79.38740 4099 ft 193 kts 279°
2026-05-05 15:45 43.79091 -79.40523 3984 ft 182 kts 265°
2026-05-05 15:45 43.78895 -79.42204 3829 ft 173 kts 251°
2026-05-05 15:45 43.78396 -79.43706 3639 ft 172 kts 238°
2026-05-05 15:45 43.77629 -79.44985 3428 ft 174 kts 230°
2026-05-05 15:46 43.76807 -79.46187 3207 ft 174 kts 229°
2026-05-05 15:46 43.75978 -79.47399 3016 ft 174 kts 229°
2026-05-05 15:46 43.75144 -79.48619 2755 ft 175 kts 230°
2026-05-05 15:46 43.74308 -79.49840 2508 ft 175 kts 229°
2026-05-05 15:47 43.73473 -79.51058 2273 ft 172 kts 230°
2026-05-05 15:47 43.72938 -79.51839 2126 ft 165 kts 230°
2026-05-05 15:47 43.71919 -79.53324 1843 ft 156 kts 231°
2026-05-05 15:47 43.71203 -79.54365 1654 ft 141 kts 231°
2026-05-05 15:48 43.70555 -79.55309 1462 ft 132 kts 230°
2026-05-05 15:48 43.69927 -79.56227 1295 ft 130 kts 231°
2026-05-05 15:48 43.69300 -79.57140 1115 ft 133 kts 230°
2026-05-05 15:48 43.68674 -79.58052 943 ft 129 kts 230°
2026-05-05 15:49 43.68044 -79.58968 757 ft 132 kts 230°
2026-05-05 15:49 43.67424 -79.59871 586 ft 128 kts 232°
2026-05-05 15:49 43.66894 -79.60647 558 ft 78 kts 227°
2026-05-05 15:49 43.66719 -79.60986 571 ft 25 kts 258°
2026-05-05 15:50 43.66677 -79.61191 565 ft 14 kts 262°
2026-05-05 15:50 43.66724 -79.61305 565 ft 14 kts 315°
2026-05-05 15:50 43.66796 -79.61402 564 ft 16 kts 317°
2026-05-05 15:50 43.66884 -79.61507 570 ft 12 kts 330°
2026-05-05 15:51 43.66955 -79.61438 568 ft 20 kts 51°
2026-05-05 15:51 43.67080 -79.61248 568 ft 29 kts 46°
2026-05-05 15:51 43.67191 -79.61145 562 ft 14 kts 328°
2026-05-05 15:51 43.67281 -79.61264 561 ft 23 kts 315°
2026-05-05 15:52 43.67414 -79.61442 562 ft 28 kts 317°
2026-05-05 15:52 43.67552 -79.61626 563 ft 27 kts 316°
2026-05-05 15:52 43.67661 -79.61651 565 ft 16 kts 18°
2026-05-05 15:52 43.67759 -79.61727 562 ft 20 kts 314°
2026-05-05 15:53 43.67868 -79.61865 562 ft 22 kts 319°
2026-05-05 15:53 43.68011 -79.61947 567 ft 23 kts 351°
2026-05-05 15:53 43.68140 -79.61847 571 ft 20 kts 45°
2026-05-05 15:53 43.68252 -79.61822 566 ft 18 kts 348°
2026-05-05 15:54 43.68321 -79.61899 569 ft 9 kts 290°
2026-05-05 15:54 43.68330 -79.61943 563 ft 0 kts 287°